TimeEDT,TemperatureF,Dew PointF,Humidity,Sea Level PressureIn,VisibilityMPH,Wind Direction,Wind SpeedMPH,Gust SpeedMPH,PrecipitationIn,Events,Conditions,WindDirDegrees,DateUTC
12:53 AM,43.0,36.0,76,30.07,-9999.0,NE,9.2,-,N/A,,Clear,40,2014-03-29 04:53:00
1:53 AM,42.1,35.1,76,30.06,-9999.0,NE,11.5,-,N/A,,Mostly Cloudy,40,2014-03-29 05:53:00
2:53 AM,41.0,34.0,76,30.04,-9999.0,NE,9.2,-,N/A,,Overcast,50,2014-03-29 06:53:00
3:53 AM,39.9,35.1,83,30.05,-9999.0,North,9.2,-,0.01,Rain,Light Rain,360,2014-03-29 07:53:00
4:53 AM,37.9,35.1,89,30.02,-9999.0,North,12.7,-,0.18,Rain,Rain,360,2014-03-29 08:53:00
5:53 AM,37.0,35.1,93,30.02,-9999.0,NNE,10.4,-,0.15,Rain,Rain,30,2014-03-29 09:53:00
6:00 AM,37.0,35.1,93,30.01,-9999.0,North,8.1,-,0.01,Rain,Rain,10,2014-03-29 10:00:00
6:13 AM,37.0,35.1,93,30.02,-9999.0,North,10.4,-,0.05,Rain,Rain,10,2014-03-29 10:13:00
6:53 AM,37.0,34.0,89,30.01,4.0,North,13.8,-,0.17,Rain,Light Rain,10,2014-03-29 10:53:00
7:53 AM,36.0,34.0,93,30.00,4.0,North,17.3,-,0.09,Rain,Light Rain,10,2014-03-29 11:53:00
8:53 AM,37.0,35.1,93,30.02,3.0,North,11.5,-,0.06,Rain,Light Rain,10,2014-03-29 12:53:00
9:53 AM,37.9,35.1,89,30.04,3.0,North,11.5,-,0.04,Rain,Light Rain,10,2014-03-29 13:53:00
10:06 AM,37.9,35.1,89,30.03,2.0,North,13.8,-,0.00,Rain,Light Rain,10,2014-03-29 14:06:00
10:53 AM,37.9,36.0,93,30.05,2.0,North,11.5,-,0.03,Rain,Light Rain,10,2014-03-29 14:53:00
11:53 AM,39.0,36.0,89,30.04,2.0,NNE,15.0,-,0.03,Rain,Light Rain,30,2014-03-29 15:53:00
12:00 PM,39.0,37.0,93,30.02,-9999.0,NE,10.4,-,0.00,Rain,Light Rain,40,2014-03-29 16:00:00
12:07 PM,39.0,36.0,89,30.02,2.5,NNE,13.8,-,0.00,Rain,Light Rain,30,2014-03-29 16:07:00
12:53 PM,39.0,36.0,89,30.04,2.5,NNW,9.2,-,0.00,,Overcast,340,2014-03-29 16:53:00
1:00 PM,39.0,36.0,89,30.03,3.0,NNW,9.2,-,N/A,,Overcast,340,2014-03-29 17:00:00
1:53 PM,37.9,35.1,89,30.04,3.0,NNW,12.7,20.7,N/A,,Overcast,340,2014-03-29 17:53:00
2:05 PM,37.0,34.0,89,30.03,2.5,NNW,10.4,20.7,N/A,,Overcast,340,2014-03-29 18:05:00
2:31 PM,36.0,34.0,93,30.03,2.0,NNW,10.4,20.7,N/A,,Overcast,340,2014-03-29 18:31:00
2:53 PM,36.0,34.0,93,30.05,2.0,North,13.8,20.7,N/A,,Overcast,350,2014-03-29 18:53:00
3:53 PM,37.9,34.0,86,30.06,2.0,North,16.1,24.2,N/A,,Overcast,350,2014-03-29 19:53:00
4:53 PM,39.0,34.0,82,30.08,2.0,North,11.5,20.7,N/A,,Haze,350,2014-03-29 20:53:00
5:00 PM,39.0,34.0,82,30.07,3.0,NNW,9.2,18.4,N/A,,Haze,340,2014-03-29 21:00:00
5:53 PM,39.0,34.0,82,30.11,4.0,NNW,9.2,17.3,N/A,,Haze,340,2014-03-29 21:53:00
6:53 PM,39.0,34.0,82,30.14,4.0,NNW,8.1,-,N/A,,Haze,340,2014-03-29 22:53:00
7:48 PM,39.2,35.6,87,30.14,3.0,NNW,8.1,-,N/A,,Overcast,340,2014-03-29 23:48:00
7:53 PM,39.0,35.1,86,30.17,3.0,NNW,9.2,-,N/A,,Overcast,340,2014-03-29 23:53:00
8:53 PM,39.0,33.1,79,30.18,3.0,North,11.5,18.4,N/A,,Haze,350,2014-03-30 00:53:00
9:00 PM,39.0,33.1,79,30.16,10.0,North,9.2,16.1,N/A,,Overcast,350,2014-03-30 01:00:00
9:53 PM,39.0,33.1,79,30.19,10.0,North,6.9,18.4,N/A,,Overcast,350,2014-03-30 01:53:00
10:53 PM,37.9,30.9,76,30.21,-9999.0,NNW,9.2,-,N/A,,Overcast,340,2014-03-30 02:53:00
11:53 PM,37.0,30.0,76,30.21,-9999.0,NW,8.1,-,N/A,,Overcast,310,2014-03-30 03:53:00